Carbondale, IL

7:42 AM CST on November 19, 2019 (GMT -0600)
Southern Illinois

Weather History for KMDH - August, 2019

Change the Weather History Date:

Wednesday, August 7, 2019

  Actual Average Record
Temperature  
Mean Temperature 76 °F -  
Max Temperature 86 °F 87 °F 108 °F (1930)
Min Temperature 66 °F 64 °F 48 °F (1957)
Cooling Degree Days 11    
Growing Degree Days 26 (Base 50)    
Moisture  
Dew Point 68 °F    
Average Humidity 79    
Maximum Humidity 100    
Minimum Humidity 55    
Precipitation  
Precipitation 0.00 in - - ()
Sea Level Pressure  
Sea Level Pressure 29.88 in    
Wind  
Wind Speed 3 mph (WNW)    
Max Wind Speed 7 mph    
Max Gust Speed -    
Visibility 10 miles    
Events      
Averages and records for this station are not official NWS values.
T = Trace of Precipitation, MM = Missing Value Source: NWS Daily Summary

Daily Weather History Graph

Daily Weather History Graph

Search for Another Location

Airport or City:

Astronomy

Aug. 07, 2019 Rise Set
Actual Time 6:05 AM CDT 7:59 PM CDT
Civil Twilight 5:36 AM CDT 8:28 PM CDT
Nautical Twilight 5:02 AM CDT 9:02 PM CDT
Astronomical Twilight 4:24 AM CDT 9:39 PM CDT
Moon 1:29 PM CDT (8/7) No Moon Set
Length of Visible Light 14h 51m
Length of Day
13h 54m
Waxing Crescent, 50% of the Moon is Illuminated
Aug 7
Waxing Crescent
Aug 7
First Quarter
Aug 15
Full
Aug 23
Last Quarter
Aug 30
New

Hourly Weather History & Observations

Time (CDT) Temp. Heat Index Dew Point Humidity Pressure Visibility Wind Dir Wind Speed Gust Speed Precip Events Conditions
12:52 AM 72.0 °F - 68.0 °F 87% 29.86 in 10.0 mi West 4.6 mph - N/A   Clear
1:52 AM 70.0 °F - 66.9 °F 90% 29.85 in 10.0 mi Calm Calm - N/A   Clear
2:52 AM 69.1 °F - 66.9 °F 93% 29.86 in 10.0 mi WSW 3.5 mph - N/A   Partly Cloudy
3:52 AM 69.1 °F - 66.9 °F 93% 29.86 in 10.0 mi Calm Calm - N/A   Scattered Clouds
4:52 AM 68.0 °F - 66.9 °F 96% 29.87 in 10.0 mi Calm Calm - N/A   Partly Cloudy
5:52 AM 66.9 °F - 66.0 °F 97% 29.87 in 7.0 mi Calm Calm - N/A   Clear
6:52 AM 66.9 °F - 66.9 °F 100% 29.88 in 10.0 mi Calm Calm - N/A   Clear
7:52 AM 73.0 °F - 69.1 °F 87% 29.89 in 10.0 mi NNW 3.5 mph - N/A   Clear
8:52 AM 77.0 °F - 69.1 °F 76% 29.90 in 10.0 mi Variable 3.5 mph - N/A   Clear
9:52 AM 80.1 °F 82.9 °F 69.1 °F 69% 29.90 in 10.0 mi WNW 4.6 mph - N/A   Clear
10:52 AM 82.0 °F 85.5 °F 69.1 °F 65% 29.89 in 10.0 mi Variable 4.6 mph - N/A   Clear
11:52 AM 84.0 °F 87.0 °F 68.0 °F 58% 29.91 in 10.0 mi NW 5.8 mph - N/A   Clear
12:52 PM 86.0 °F 89.4 °F 68.0 °F 55% 29.89 in 10.0 mi NNW 5.8 mph - N/A   Clear
1:52 PM 82.9 °F 85.4 °F 66.9 °F 58% 29.88 in 10.0 mi NW 3.5 mph - N/A   Clear
2:52 PM 82.9 °F 86.5 °F 69.1 °F 63% 29.89 in 10.0 mi West 6.9 mph - N/A   Clear
3:52 PM 82.9 °F 86.5 °F 69.1 °F 63% 29.88 in 10.0 mi West 6.9 mph - N/A   Clear
4:52 PM 82.9 °F 86.5 °F 69.1 °F 63% 29.87 in 10.0 mi West 5.8 mph - N/A   Clear
5:52 PM 81.0 °F 84.4 °F 70.0 °F 69% 29.86 in 10.0 mi West 4.6 mph - N/A   Clear
6:52 PM 81.0 °F 84.1 °F 69.1 °F 67% 29.83 in 10.0 mi Calm Calm - N/A   Clear
7:52 PM 75.0 °F - 70.0 °F 84% 29.84 in 10.0 mi WSW 5.8 mph - N/A   Clear
8:52 PM 73.9 °F - 68.0 °F 82% 29.87 in 10.0 mi WSW 3.5 mph - N/A   Clear
9:52 PM 71.1 °F - 68.0 °F 90% 29.88 in 10.0 mi Calm Calm - N/A   Clear
10:52 PM 69.1 °F - 68.0 °F 96% 29.88 in 8.0 mi Calm Calm - N/A   Clear
11:52 PM 68.0 °F - 66.9 °F 96% 29.89 in 7.0 mi Calm Calm - N/A   Clear